Home   Weather   Providence   Past weeks
Flag for USA

Past Weather in Providence, Rhode Island, USA — Yesterday and Last 2 Weeks

Now
38 °F

Scattered clouds.


Feels Like: 28 °F
Forecast: 46 / 33 °F
Wind: 20 mph from Northwest

Location: Green State Airport

Current Time: Mar 23, 2019 at 12:02:04 pm

Latest Report: Mar 23, 2019 at 10:51 am


Visibility: 10 mi

Pressure: 29.61 "Hg

Humidity: 60%

Dew Point: 25 °F

Location of ProvidenceLocation

Past Weather in Providence — Graph

°F

Providence Temperature Yesterday

Maximum temperature yesterday: 45 °F (at 5:51 pm)
Minimum temperature yesterday: 36 °F (at 1:21 pm)
Average temperature yesterday: 40 °F

High & Low Weather Summary for the Past Weeks

 TemperatureHumidityPressure
High60 °F (Mar 15, 3:51 pm)100% (Mar 10, 2:55 pm)30.43 "Hg (Mar 10, 2:55 pm)
Low19 °F (Mar 9, 5:51 am)22% (Mar 18, 4:51 pm)29.14 "Hg (Mar 22, 2:51 pm)
Average39 °F67%30.02 "Hg
* Reported Mar 8 9:51 am — Mar 23 10:51 am, Providence. Weather by CustomWeather, © 2019

Note: Actual official high and low records may vary slightly from our data, if they occured in-between our weather recording intervals... More about our weather records

Advertising

Providence Weather History for the Previous 24 Hours

Scroll right to see more
 ConditionsComfort  
Time TempWeatherWind HumidityBarometerVisibility
10:51 am
Sat, Mar 23
38 °FScattered clouds.20 mph60%29.61 "Hg10 mi
9:51 am35 °FBroken clouds.20 mph64%29.58 "Hg10 mi
8:51 am33 °FPartly sunny.16 mph70%29.54 "Hg10 mi
7:51 am31 °FMore clouds than sun.17 mph76%29.49 "Hg10 mi
6:58 am31 °FIce fog.24 mph79%29.45 "Hg7 mi
5:51 am31 °FLight snow. Ice fog.26 mph82%29.39 "Hg2 mi
5:32 am31 °FLight snow. Ice fog.24 mph85%29.39 "Hg2 mi
5:09 am31 °FLight snow. Ice fog.22 mph85%29.38 "Hg3 mi
4:51 am31 °FLight snow. Ice fog.25 mph89%29.37 "Hg1 mi
4:05 am32 °FLight snow. Ice fog.18 mph88%29.34 "Hg2 mi
3:51 am33 °FLight snow. Fog.22 mph85%29.34 "Hg4 mi
3:16 am33 °FLight snow. Fog.16 mph88%29.33 "Hg2 mi
2:51 am33 °FLight snow. Fog.21 mph88%29.33 "Hg1 mi
2:15 am35 °FLight snow. Overcast.22 mph82%29.32 "Hg5 mi
1:51 am35 °FLight snow. Overcast.17 mph85%29.31 "Hg9 mi
1:05 am37 °FLight rain. Overcast.21 mph86%29.30 "Hg10 mi
12:51 am37 °FLight rain. Overcast.22 mph86%29.30 "Hg10 mi
12:23 am38 °FLight rain. Overcast.20 mph86%29.30 "Hg10 mi
11:51 pm
Fri, Mar 22
38 °FLight rain. Mostly cloudy.20 mph83%29.29 "Hg10 mi
10:51 pm39 °FLight rain. Mostly cloudy.17 mph79%29.28 "Hg10 mi
9:51 pm40 °FOvercast.23 mph77%29.28 "Hg10 mi
8:51 pm40 °FPassing clouds.17 mph77%29.25 "Hg10 mi
7:51 pm42 °FPassing clouds.18 mph71%29.22 "Hg10 mi
7:34 pm42 °FPassing clouds.22 mph71%29.21 "Hg10 mi
6:51 pm43 °FPartly sunny.20 mph71%29.20 "Hg10 mi
5:51 pm45 °FPartly sunny.23 mph65%29.16 "Hg10 mi
5:14 pm44 °FBroken clouds.17 mph73%29.15 "Hg10 mi
4:04 pm42 °FMostly cloudy.16 mph82%29.15 "Hg10 mi
3:51 pm43 °FLight rain. Broken clouds.18 mph86%29.14 "Hg10 mi
2:51 pm39 °FLight rain. Cloudy.14 mph100%29.14 "Hg10 mi
2:11 pm37 °FLight rain. Mostly cloudy.12 mph100%29.14 "Hg10 mi
1:51 pm36 °FLight rain. Mostly cloudy.14 mph100%29.15 "Hg9 mi
1:21 pm36 °FLight rain. Mostly cloudy.13 mph100%29.16 "Hg10 mi
12:57 pm37 °FLight rain. More clouds than sun.10 mph100%29.16 "Hg9 mi
12:32 pm38 °FLight rain. Mostly cloudy.10 mph97%29.17 "Hg10 mi
Weather by CustomWeather, © 2019

See weather overview